| time (UTC) | temp F | wind direction | speed MPH | gust MPH | rain 1hr in | rain 24hr in | rain mn in | humidity % | barometer mb |
| 20260502234543 | 65 | 273 | 3.0 | 6.0 | 0.00 | 0.00 | 0.00 | 34 | 1016.7 |
| 20260502233039 | 65 | 281 | 2.0 | 7.0 | 0.00 | 0.00 | 0.00 | 33 | 1016.8 |
| 20260502231538 | 65 | 287 | 3.0 | 7.0 | 0.00 | 0.00 | 0.00 | 33 | 1017.0 |
| 20260502230034 | 65 | 267 | 3.0 | 5.0 | 0.00 | 0.00 | 0.00 | 33 | 1017.0 |
| 20260502224533 | 65 | 234 | 2.0 | 5.0 | 0.00 | 0.00 | 0.00 | 33 | 1017.2 |
| 20260502223037 | 65 | 269 | 3.0 | 10.0 | 0.00 | 0.00 | 0.00 | 33 | 1017.2 |
| 20260502221533 | 65 | 277 | 3.0 | 9.0 | 0.00 | 0.00 | 0.00 | 33 | 1017.3 |
| 20260502220033 | 65 | 252 | 3.0 | 8.0 | 0.00 | 0.00 | 0.00 | 33 | 1017.3 |
| 20260502214532 | 65 | 338 | 3.0 | 10.0 | 0.00 | 0.00 | 0.00 | 33 | 1017.5 |
| 20260502213031 | 66 | 292 | 5.0 | 12.0 | 0.00 | 0.00 | 0.00 | 32 | 1017.5 |
| 20260502211538 | 65 | 319 | 1.0 | 7.0 | 0.00 | 0.00 | 0.00 | 36 | 1017.6 |
| 20260502210033 | 65 | 262 | 2.0 | 9.0 | 0.00 | 0.00 | 0.00 | 35 | 1017.7 |
| 20260502204525 | 65 | 219 | 3.0 | 6.0 | 0.00 | 0.00 | 0.00 | 34 | 1017.8 |
| 20260502203023 | 64 | 321 | 3.0 | 6.0 | 0.00 | 0.00 | 0.00 | 36 | 1018.1 |
| 20260502201520 | 63 | 273 | 4.0 | 11.0 | 0.00 | 0.00 | 0.00 | 34 | 1018.3 |
| 20260502200024 | 63 | 236 | 4.0 | 12.0 | 0.00 | 0.00 | 0.00 | 35 | 1018.5 |
| 20260502194518 | 63 | 271 | 3.0 | 9.0 | 0.00 | 0.00 | 0.00 | 35 | 1018.5 |
| 20260502193020 | 63 | 269 | 2.0 | 10.0 | 0.00 | 0.00 | 0.00 | 37 | 1018.6 |
| 20260502191514 | 63 | 278 | 2.0 | 11.0 | 0.00 | 0.00 | 0.00 | 40 | 1018.7 |
| 20260502190012 | 62 | 252 | 1.0 | 12.0 | 0.00 | 0.00 | 0.00 | 38 | 1018.9 |
| 20260502184511 | 62 | 284 | 3.0 | 10.0 | 0.00 | 0.00 | 0.00 | 39 | 1019.0 |
| 20260502183020 | 62 | 261 | 4.0 | 11.0 | 0.00 | 0.00 | 0.00 | 38 | 1019.1 |
| 20260502181514 | 61 | 265 | 3.0 | 10.0 | 0.00 | 0.00 | 0.00 | 40 | 1019.1 |
| 20260502163057 | 58 | 286 | 1.0 | 5.0 | 0.00 | 0.00 | 0.00 | 45 | 1019.5 |
| 20260502161552 | 57 | 46 | 2.0 | 7.0 | 0.00 | 0.00 | 0.00 | 45 | 1019.5 |
| 20260502160153 | 57 | 281 | 1.0 | 7.0 | 0.00 | 0.00 | 0.00 | 48 | 1019.7 |
| 20260502151559 | 57 | 296 | 2.0 | 12.0 | 0.00 | 0.00 | 0.00 | 52 | 1019.7 |
| 20260502123016 | 40 | 332 | 0.0 | 2.0 | 0.00 | 0.00 | 0.00 | 85 | 1019.2 |
| 20260502121514 | 39 | 333 | 0.0 | 0.0 | 0.00 | 0.00 | 0.00 | 84 | 1019.1 |
| 20260502114506 | 40 | 333 | 0.0 | 0.0 | 0.00 | 0.00 | 0.00 | 82 | 1018.6 |
| 20260502113004 | 40 | 333 | 0.0 | 0.0 | 0.00 | 0.00 | 0.00 | 82 | 1018.4 |
| 20260502111502 | 40 | 333 | 0.0 | 0.0 | 0.00 | 0.00 | 0.00 | 80 | 1018.3 |
| 20260502110100 | 41 | 333 | 0.0 | 0.0 | 0.00 | 0.00 | 0.00 | 81 | 1018.2 |
| 20260502104558 | 41 | 333 | 0.0 | 0.0 | 0.00 | 0.00 | 0.00 | 82 | 1018.0 |
| 20260502103057 | 41 | 333 | 0.0 | 0.0 | 0.00 | 0.00 | 0.00 | 81 | 1017.9 |
| 20260502101623 | 41 | 332 | 0.0 | 0.0 | 0.00 | 0.00 | 0.00 | 81 | 1017.9 |
| 20260502090106 | 42 | 332 | 0.0 | 0.0 | 0.00 | 0.00 | 0.00 | 76 | 1017.5 |
| 20260502070053 | 43 | 332 | 0.0 | 0.0 | 0.00 | 0.00 | 0.00 | 71 | 1017.1 |
| 20260502064535 | 43 | 332 | 0.0 | 0.0 | 0.00 | 0.00 | 0.00 | 71 | 1017.1 |
| 20260502063038 | 44 | 332 | 0.0 | 0.0 | 0.00 | 0.00 | 0.00 | 68 | 1017.2 |
| 20260502061533 | 44 | 332 | 0.0 | 0.0 | 0.00 | 0.00 | 0.00 | 68 | 1017.1 |
| 20260502060033 | 44 | 332 | 0.0 | 0.0 | 0.00 | 0.00 | 0.00 | 65 | 1017.2 |
| 20260502054529 | 44 | 332 | 0.0 | 0.0 | 0.00 | 0.00 | 0.00 | 64 | 1017.2 |
| 20260502053027 | 45 | 332 | 0.0 | 0.0 | 0.00 | 0.00 | 0.00 | 64 | 1017.1 |
| 20260502051526 | 45 | 332 | 0.0 | 0.0 | 0.00 | 0.00 | 0.00 | 64 | 1017.1 |
| 20260502050022 | 46 | 332 | 0.0 | 0.0 | 0.00 | 0.00 | 0.00 | 62 | 1017.1 |
| 20260502044521 | 46 | 332 | 0.0 | 0.0 | 0.00 | 0.00 | 0.00 | 61 | 1017.1 |
| 20260502043021 | 47 | 332 | 0.0 | 0.0 | 0.00 | 0.00 | 0.00 | 61 | 1017.1 |
| 20260502041520 | 48 | 332 | 0.0 | 0.0 | 0.00 | 0.00 | 0.00 | 61 | 1017.0 |
| 20260502040019 | 48 | 332 | 0.0 | 0.0 | 0.00 | 0.00 | 0.00 | 60 | 1017.0 |
| 20260502034525 | 49 | 332 | 0.0 | 0.0 | 0.00 | 0.00 | 0.00 | 58 | 1017.0 |
| 20260502033018 | 50 | 332 | 0.0 | 0.0 | 0.00 | 0.00 | 0.00 | 57 | 1016.9 |
| 20260502031517 | 50 | 332 | 0.0 | 0.0 | 0.00 | 0.00 | 0.00 | 55 | 1016.8 |
| 20260502030017 | 51 | 332 | 0.0 | 0.0 | 0.00 | 0.00 | 0.00 | 56 | 1016.7 |
| 20260502024516 | 52 | 332 | 0.0 | 0.0 | 0.00 | 0.00 | 0.00 | 53 | 1016.6 |
| 20260502023016 | 53 | 332 | 0.0 | 3.0 | 0.00 | 0.00 | 0.00 | 51 | 1016.3 |
| 20260502021515 | 53 | 289 | 0.0 | 0.0 | 0.00 | 0.00 | 0.00 | 48 | 1015.9 |
| 20260502020015 | 54 | 289 | 0.0 | 2.0 | 0.00 | 0.00 | 0.00 | 46 | 1015.5 |
| 20260502014513 | 56 | 288 | 0.0 | 2.0 | 0.00 | 0.00 | 0.00 | 45 | 1015.3 |
| 20260502013013 | 57 | 288 | 0.0 | 1.0 | 0.00 | 0.00 | 0.00 | 42 | 1014.9 |
| 20260502011521 | 58 | 288 | 0.0 | 1.0 | 0.00 | 0.00 | 0.00 | 39 | 1014.7 |
| 20260502010015 | 60 | 288 | 0.0 | 2.0 | 0.00 | 0.00 | 0.00 | 37 | 1014.5 |
| 20260502004512 | 60 | 288 | 1.0 | 7.0 | 0.00 | 0.00 | 0.00 | 36 | 1014.3 |
| 20260502003011 | 61 | 289 | 2.0 | 10.0 | 0.00 | 0.00 | 0.00 | 35 | 1014.0 |
| 20260502001513 | 62 | 288 | 2.0 | 6.0 | 0.00 | 0.00 | 0.00 | 37 | 1013.9 |
| 20260502000010 | 62 | 271 | 3.0 | 9.0 | 0.00 | 0.00 | 0.00 | 38 | 1013.7 |